Location: Unspecified
(0.0000°N, 0.0000°E)
Time: 01:28:59
(UTC+00:00)

Hubble Space Telescope - Pass Details

Date: 18 July 2019
Orbit: 536 x 540 km, 28.5° (Epoch: 17 November)

Event Time Altitude Azimuth Distance (km) Brightness Sun altitude
Exits shadow 05:23:44 13° 242° (WSW) 1,588 2.5 -9.9°
Maximum altitude 05:27:22 83° 329° (NNW) 541 0.7 -9.1°
Drops below altitude 10° 05:31:29 10° 57° (ENE) 1,777 5.0 -8.1°
Sets 05:33:44 0° 58° (ENE) 2,665 6.4 -7.6°
